Change the Weather History Date:

Friday, August 2, 2013

  Actual Average (KGVL) Record (KGVL)
Temperature  
Mean Temperature 75 °F 79 °F  
Max Temperature 86 °F 88 °F 98 °F (1951)
Min Temperature 64 °F 70 °F 58 °F (1936)
Cooling Degree Days 10 14  
Month to date cooling degree days 28  
Year to date cooling degree days 950  
Since 1 June cooling degree days 775  
Growing Degree Days 25 (Base 50)    
Moisture  
Dew Point 61 °F    
Average Humidity 67    
Maximum Humidity 94    
Minimum Humidity 31    
Precipitation  
Precipitation 0.00 in 0.16 in 2.45 in (1971)
Month to date precipitation 0.32  
Year to date precipitation 32.14  
Sea Level Pressure  
Sea Level Pressure 30.04 in    
Wind  
Wind Speed 1 mph (WSW)    
Max Wind Speed 5 mph    
Max Gust Speed -    
Visibility 8 miles    
Events      
T = Trace of Precipitation, MM = Missing Value Source: NWS Daily Summary

Daily Weather History Graph

Daily Weather History Graph

Search for Another Location

Airport or City:

Trip Planner

Search our weather history database for the weather conditions in past years. The results will help you decide how hot, cold, wet, or windy it might be!

Date:

Astronomy

Aug. 02, 2013 Rise Set
Actual Time 6:49 AM EDT 8:37 PM EDT
Civil Twilight 6:21 AM EDT 9:05 PM EDT
Nautical Twilight 5:48 AM EDT 9:38 PM EDT
Astronomical Twilight 5:13 AM EDT 10:13 PM EDT
Moon 3:11 AM EDT (8/2) 5:33 PM EDT (8/2)
Length of Visible Light 14h 43m
Length of Day
13h 48m
Waning Crescent, 16% of the Moon is Illuminated
Aug 2
Waning Crescent
Aug 6
New
Aug 14
First Quarter
Aug 20
Full
Aug 28
Last Quarter

Hourly Weather History & Observations

Time (EDT) Temp. Heat Index Dew Point Humidity Pressure Visibility Wind Dir Wind Speed Gust Speed Precip Events Conditions
12:15 AM 69.8 °F - 66.2 °F 88% 30.00 in 4.0 mi NW 3.5 mph - N/A   Clear
12:35 AM 69.8 °F - 64.4 °F 83% 30.00 in 7.0 mi Calm Calm - N/A   Clear
12:55 AM 69.8 °F - 64.4 °F 83% 30.01 in 7.0 mi Calm Calm - N/A   Clear
1:15 AM 69.8 °F - 62.6 °F 78% 30.01 in 7.0 mi NW 3.5 mph - N/A   Clear
1:35 AM 69.8 °F - 64.4 °F 83% 30.01 in 10.0 mi Calm Calm - N/A   Clear
1:55 AM 69.8 °F - 62.6 °F 78% 30.01 in 10.0 mi Calm Calm - N/A   Clear
2:15 AM 68.0 °F - 62.6 °F 83% 30.01 in 10.0 mi Calm Calm - N/A   Clear
2:35 AM 68.0 °F - 64.4 °F 88% 30.00 in 7.0 mi Calm Calm - N/A   Clear
2:55 AM 68.0 °F - 60.8 °F 78% 29.99 in 7.0 mi Calm Calm - N/A   Clear
3:15 AM 68.0 °F - 60.8 °F 78% 29.99 in 7.0 mi Calm Calm - N/A   Clear
3:35 AM 69.8 °F - 60.8 °F 73% 29.99 in 10.0 mi Calm Calm - N/A   Clear
3:55 AM 68.0 °F - 62.6 °F 83% 29.98 in 7.0 mi Calm Calm - N/A   Clear
4:15 AM 68.0 °F - 62.6 °F 83% 29.98 in 7.0 mi Calm Calm - N/A   Clear
4:35 AM 64.4 °F - 62.6 °F 94% 29.98 in 3.0 mi Calm Calm - N/A   Clear
4:55 AM 64.4 °F - 62.6 °F 94% 29.98 in 5.0 mi Calm Calm - N/A   Clear
5:15 AM 66.2 °F - 62.6 °F 88% 29.99 in 7.0 mi Calm Calm - N/A   Clear
5:35 AM 64.4 °F - 62.6 °F 94% 30.01 in 4.0 mi Calm Calm - N/A   Clear
5:55 AM 66.2 °F - 62.6 °F 88% 30.00 in 4.0 mi Calm Calm - N/A   Clear
6:15 AM 64.4 °F - 62.6 °F 94% 30.00 in 4.0 mi Calm Calm - N/A   Clear
6:35 AM 64.4 °F - 62.6 °F 94% 30.00 in 3.0 mi Calm Calm - N/A   Clear
6:55 AM 64.4 °F - 62.6 °F 94% 30.01 in 4.0 mi ESE 3.5 mph - N/A   Clear
7:15 AM 64.4 °F - 62.6 °F 94% 30.02 in 2.0 mi Calm Calm - N/A   Scattered Clouds
7:35 AM 64.4 °F - 62.6 °F 94% 30.03 in 1.5 mi Calm Calm - N/A   Scattered Clouds
7:55 AM 66.2 °F - 62.6 °F 88% 30.04 in 5.0 mi Calm Calm - N/A   Clear
8:15 AM 64.4 °F - 62.6 °F 94% 30.04 in 5.0 mi Calm Calm - N/A   Clear
8:35 AM 66.2 °F - 62.6 °F 88% 30.04 in 5.0 mi Calm Calm - N/A   Clear
8:55 AM 68.0 °F - 64.4 °F 88% 30.05 in 7.0 mi Calm Calm - N/A   Clear
9:15 AM 68.0 °F - 64.4 °F 88% 30.06 in 7.0 mi Calm Calm - N/A   Scattered Clouds
9:35 AM 69.8 °F - 64.4 °F 83% 30.06 in 7.0 mi Calm Calm - N/A   Clear
9:55 AM 69.8 °F - 64.4 °F 83% 30.06 in 7.0 mi Calm Calm - N/A   Clear
10:15 AM 73.4 °F - 62.6 °F 69% 30.06 in 10.0 mi Calm Calm - N/A   Clear
10:35 AM 73.4 °F - 60.8 °F 65% 30.06 in 10.0 mi Calm Calm - N/A   Clear
10:55 AM 77.0 °F - 64.4 °F 65% 30.07 in 10.0 mi Calm Calm - N/A   Clear
11:15 AM 78.8 °F - 60.8 °F 54% 30.07 in 10.0 mi Calm Calm - N/A   Clear
11:35 AM 80.6 °F 81.1 °F 59.0 °F 48% 30.07 in 10.0 mi Calm Calm - N/A   Clear
11:55 AM 80.6 °F 81.5 °F 60.8 °F 51% 30.07 in 10.0 mi Calm Calm - N/A   Clear
12:15 PM 80.6 °F 81.1 °F 59.0 °F 48% 30.07 in 10.0 mi Calm Calm - N/A   Clear
12:35 PM 82.4 °F 82.5 °F 59.0 °F 45% 30.07 in 10.0 mi Calm Calm - N/A   Clear
12:55 PM 84.2 °F 83.8 °F 59.0 °F 42% 30.07 in 10.0 mi SSW 3.5 mph - N/A   Clear
1:15 PM 82.4 °F 82.0 °F 57.2 °F 42% 30.07 in 10.0 mi Calm Calm - N/A   Clear
1:35 PM 82.4 °F 81.7 °F 55.4 °F 39% 30.07 in 10.0 mi Calm Calm - N/A   Clear
1:55 PM 82.4 °F 82.5 °F 59.0 °F 45% 30.07 in 10.0 mi Calm Calm - N/A   Mostly Cloudy
2:15 PM 84.2 °F 82.8 °F 53.6 °F 35% 30.07 in 10.0 mi Calm Calm - N/A   Scattered Clouds
2:35 PM 86.0 °F 84.2 °F 53.6 °F 33% 30.06 in 10.0 mi Calm Calm - N/A   Clear
2:55 PM 86.0 °F 84.2 °F 53.6 °F 33% 30.06 in 10.0 mi SSW 4.6 mph - N/A   Clear
3:15 PM 86.0 °F - 51.8 °F 31% 30.06 in 10.0 mi SW 4.6 mph - N/A   Clear
3:35 PM 86.0 °F - 51.8 °F 31% 30.06 in 10.0 mi WSW 4.6 mph - N/A   Clear
3:55 PM 84.2 °F 83.0 °F 55.4 °F 37% 30.06 in 10.0 mi Calm Calm - N/A   Clear
4:15 PM 86.0 °F 85.4 °F 59.0 °F 40% 30.06 in 10.0 mi West 4.6 mph - N/A   Clear
4:35 PM 82.4 °F 82.5 °F 59.0 °F 45% 30.06 in 10.0 mi Calm Calm - N/A   Clear
4:55 PM 84.2 °F 84.4 °F 60.8 °F 45% 30.05 in 10.0 mi WNW 3.5 mph - N/A   Clear
5:15 PM 84.2 °F 83.5 °F 57.2 °F 40% 30.04 in 10.0 mi Calm Calm - N/A   Clear
5:35 PM 84.2 °F 83.0 °F 55.4 °F 37% 30.04 in 10.0 mi Calm Calm - N/A   Clear
5:55 PM 80.6 °F 81.1 °F 59.0 °F 48% 30.04 in 10.0 mi Calm Calm - N/A   Clear
6:15 PM 82.4 °F 82.0 °F 57.2 °F 42% 30.03 in 10.0 mi Calm Calm - N/A   Clear
6:35 PM 82.4 °F 82.0 °F 57.2 °F 42% 30.03 in 10.0 mi Calm Calm - N/A   Clear
6:55 PM 82.4 °F 82.0 °F 57.2 °F 42% 30.03 in 10.0 mi Calm Calm - N/A   Clear
7:15 PM 80.6 °F 81.5 °F 60.8 °F 51% 30.04 in 10.0 mi Calm Calm - N/A   Clear
7:35 PM 78.8 °F - 60.8 °F 54% 30.04 in 10.0 mi Calm Calm - N/A   Clear
7:55 PM 78.8 °F - 59.0 °F 51% 30.04 in 10.0 mi Calm Calm - N/A   Clear
8:15 PM 77.0 °F - 60.8 °F 57% 30.05 in 10.0 mi Calm Calm - N/A   Clear
8:35 PM 75.2 °F - 62.6 °F 65% 30.05 in 10.0 mi Calm Calm - N/A   Clear
8:55 PM 73.4 °F - 62.6 °F 69% 30.05 in 10.0 mi Calm Calm - N/A   Clear
9:15 PM 73.4 °F - 62.6 °F 69% 30.06 in 10.0 mi Calm Calm - N/A   Clear
9:35 PM 73.4 °F - 60.8 °F 65% 30.07 in 10.0 mi Calm Calm - N/A   Clear
9:55 PM 73.4 °F - 60.8 °F 65% 30.07 in 10.0 mi Calm Calm - N/A   Clear
10:15 PM 73.4 °F - 60.8 °F 65% 30.07 in 10.0 mi Calm Calm - N/A   Clear
10:35 PM 69.8 °F - 62.6 °F 78% 30.07 in 10.0 mi Calm Calm - N/A   Clear
10:55 PM 69.8 °F - 64.4 °F 83% 30.07 in 10.0 mi Calm Calm - N/A   Clear
11:15 PM 69.8 °F - 64.4 °F 83% 30.07 in 10.0 mi Calm Calm - N/A   Clear
11:35 PM 69.8 °F - 64.4 °F 83% 30.07 in 10.0 mi Calm Calm - N/A   Clear
11:55 PM 69.8 °F - 64.4 °F 83% 30.08 in 7.0 mi Calm Calm - N/A   Clear